This demonstration page uses our WeatherBlox Daily Observations layout. Learn more.

Left ArrowRight Arrow

40.92501, -98.34201

Hourly Observations for July 25, 2021

Temp ( °F °C ) Dew Point ( °F °C ) Humidity (%) Winds ( mph kmh ) Pressure ( in mb ) Visibility ( mi km ) Precip ( " mm )
12:33 am 00:33 Clear with Mist and Fog 70 21.1 68 20 93 93 N 3 6 29.99 1016 2 2 0.00 0.00
12:37 am 00:37 Mostly Cloudy with Fog 71 21.7 68 20 90 90 N 3 6 29.99 1016 0 0 0.00 0.00
12:53 am 00:53 Mostly Cloudy with Fog 71 21.7 69 20.6 94 94 NNE 3 6 30.02 1017 0 0 0.00 0.00
1:01 am 01:01 Mostly Cloudy with Fog 70 21.1 68 20 93 93 Calm 29.98 1015 0 0 0.00 0.00
1:24 am 01:24 Mostly Cloudy with Fog 69 20.6 67 19.4 93 93 SW 3 6 30.00 1016 0 0 0.00 0.00
1:35 am 01:35 Cloudy with Mist and Fog 70 21.1 68 20 93 93 SW 5 7 29.99 1016 1 2 0.00 0.00
1:39 am 01:39 Cloudy with Mist and Fog 71 21.7 68 20 90 90 SW 3 6 29.99 1016 3 5 0.00 0.00
1:50 am 01:50 Cloudy with Mist and Fog 72 22 70 21 94 94 NW 3 6 29.99 1015 4 6 0.00 0.00
1:53 am 01:53 Cloudy with Mist and Fog 71 21.7 69 20.6 94 94 NW 3 6 30.02 1017 4 6 0.00 0.00
2:53 am 02:53 Cloudy with Mist and Fog 70 21.1 68 20 93 93 SSE 3 6 30.01 1016 4 6 0.00 0.00
3:53 am 03:53 Partly Cloudy with Mist and Fog 68 20 65 18.3 90 90 N 6 9 30.01 1016 4 6 0.00 0.00
4:53 am 04:53 Clear with Mist and Fog 68 20 65 18.3 90 90 Calm 30.00 1016 3 5 0.00 0.00
5:53 am 05:53 Partly Cloudy with Mist and Fog 69 20.6 66 18.9 90 90 Calm 30.01 1016 5 8 0.00 0.00
6:36 am 06:36 Sunny with Mist and Fog 70 21.1 67 19.4 90 90 S 3 6 29.99 1016 3 4 0.00 0.00
6:53 am 06:53 Partly Cloudy with Mist and Fog 71 21.7 67 19.4 87 87 S 6 9 30.02 1017 3 5 0.00 0.00
7:53 am 07:53 Mostly Cloudy with Mist and Fog 72 22.2 69 20.6 91 91 SE 6 9 30.03 1017 3 5 0.00 0.00
8:53 am 08:53 Sunny with Mist and Fog 73 22.8 70 21.1 90 90 SSE 5 7 30.06 1018 3 5 0.00 0.00
9:06 am 09:06 Sunny with Mist and Fog 73 22.8 70 21.1 90 90 SSE 8 13 30.02 1017 3 4 0.00 0.00
9:17 am 09:17 Sunny with Mist and Fog 73 22.8 69 20.6 87 87 SSE 7 11 30.02 1017 6 10 0.00 0.00
9:53 am 09:53 Sunny 72 22.2 66 18.9 82 82 SSE 7 11 30.07 1018 8 13 0.00 0.00
10:53 am 10:53 Sunny 72 22.2 67 19.4 84 84 S 9 15 30.09 1019 9 14 0.00 0.00
11:53 am 11:53 Sunny 74 23.3 65 18.3 74 74 SSE 10 17 30.09 1019 10 16 0.00 0.00
12:53 pm 12:53 Sunny 75 23.9 60 15.6 60 60 S 10 17 30.08 1019 10 16 0.00 0.00
1:53 pm 13:53 Sunny 77 25 57 13.9 50 50 S 10 17 30.06 1018 10 16 0.00 0.00
2:53 pm 14:53 Sunny 83 28.3 58 14.4 43 43 SSW 9 15 30.04 1017 10 16 0.00 0.00
3:53 pm 15:53 Sunny 82 27.8 56 13.3 41 41 VRB 5 7 30.04 1017 10 16 0.00 0.00
4:53 pm 16:53 Sunny 83 28.3 60 15.6 46 46 S 6 9 30.01 1016 10 16 0.00 0.00
5:53 pm 17:53 Sunny 83 28.3 61 16.1 48 48 SSE 12 19 29.99 1016 10 16 0.00 0.00
6:53 pm 18:53 Sunny 82 27.8 63 17.2 53 53 S 8 13 29.99 1016 10 16 0.00 0.00
7:53 pm 19:53 Sunny 79 26.1 65 18.3 62 62 SE 7 11 29.98 1015 9 14 0.00 0.00
8:53 pm 20:53 Sunny 73 22.8 65 18.3 76 76 SSE 5 7 29.99 1016 9 14 0.00 0.00
9:53 pm 21:53 Clear 69 20.6 63 17.2 81 81 Calm 30.02 1017 9 14 0.00 0.00
10:53 pm 22:53 Clear 68 20 63 17.2 84 84 SSW 5 7 30.04 1017 7 11 0.00 0.00
11:53 pm 23:53 Clear 67 19.4 63 17.2 87 87 Calm 30.05 1018 7 11 0.00 0.00

Powered by AerisWeather